{"data":{"norad_id":62809,"intl_designator":"2025-018D","name":"STARLINK-32787","alt_names":[],"object_type":"PAYLOAD","status":"ACTIVE","operator":null,"country":"US","launch_date":"2025-01-24","launch_site_code":"AFWTR","launch_vehicle":null,"mission":null,"orbit_class":"UNKNOWN","rcs_meters":null,"size_class":null,"mass_kg":null,"dimensions":null,"purposes":["comms"],"wikipedia_slug":null,"has_3d_model":false,"image_url":null,"decayed_at":null,"tle_current":{"epoch":"2026-05-25T04:43:09.371136Z","epoch_age_seconds":54715,"freshness":"FRESH","line1":"1 62809U 25018D   26145.19663624  .00021408  00000+0  73236-3 0  9994","line2":"2 62809  53.1603 314.1087 0001388 101.9862 258.1295 15.30221007 74886","mean_motion":15.30221007,"eccentricity":0.0001388,"inclination_deg":53.1603,"raan_deg":314.1087,"arg_perigee_deg":101.9862,"mean_anomaly_deg":258.1295,"bstar":0.00073236,"rev_number":7488,"period_min":94.104053820508,"perigee_km":474.20111046005,"apogee_km":476.10358358279,"semimajor_km":6853.2893470214,"source":"CELESTRAK","updated_at":"2026-05-25T13:38:19.771868Z"}}}